カタログに戻る

CZ-4C DEB

運用中LEO
NORAD 38325·DEBRIS·🇨🇳 China

打ち上げ Dec 15, 2009 から Taiyuan Satellite Launch Center

Loading…

次のパス (今後24時間)

TLE

最新Source: Space-Track

元期: Sep 14, 2026, 21:17 UTC

1 38325U 09072D   26257.88748670 -.00000035  00000-0  20076-4 0  9997
2 38325 100.4955 291.7949 0157432  89.6051  87.4714 13.46306590651380

AllMySatでCZ-4C DEBをリアルタイム追跡

Download on the App Store